Location: Bh?mavarapp?du
(16.7041°N, 80.6518°E)
Time: 02:38:04
(UTC+00:00)

H-2A R/B - Pass Details

Date: 21 April 2021
Orbit: 733 x 837 km, 98.2° (Epoch: 07 May)

Event Time Altitude Azimuth Distance (km) Brightness Sun altitude
Rises 14:03:56 0° 187° (S) 3,262 5.1 -16.9°
Reaches altitude 10° 14:06:28 10° 196° (SSW) 2,318 4.5 -17.5°
Maximum altitude 14:11:03 34° 260° (W) 1,247 3.6 -18.5°
Drops below altitude 10° 14:15:32 10° 324° (NW) 2,266 5.2 -19.5°
Sets 14:18:00 0° 334° (NNW) 3,179 5.9 -20.1°
